Вернуться в каталог

DELTA 1 DEB

АктивенSSO
NORAD 13570·DEBRIS·🇺🇸 United States

Запущен Mar 5, 1978 с Vandenberg Space Force Base

Loading…

Ближайшие Пролёты (ближайшие 24 часа)

TLE

СвежийSource: Space-Track

Эпоха: Sep 14, 2026, 08:53 UTC

1 13570U 78026FH  26257.37060666  .00000648  00000-0  20413-3 0  9996
2 13570  98.5233 293.4995 0042301 289.8578  82.3226 14.43194913362706

Отслеживайте DELTA 1 DEB в реальном времени с AllMySat

Download on the App Store